Simultaneous Nadir Overpasses (SNOs) Predictions

Prediction of SNOs between GOES-16 and AQUA Satellite Orbit:

Table of predicted SNOs for the next 14.0 days since TLE Epoch: 2/19/2021
Index Date Time (GOES-16) GOES-16 Lat,Lon AQUA Lat,Lon Distance(km) Time Diff (sec)
1 02/20/2021 18:35:19 0.00, -75.18 0.10, -74.63 62.71 80
2 02/22/2021 18:23:08 -0.01, -75.19 0.75, -71.67 400.42 80
3 02/23/2021 06:44:24 0.01, -75.20 0.35, -76.83 185.36 80
4 02/25/2021 06:29:33 0.00, -75.21 -0.30, -73.87 152.34 80
5 02/25/2021 18:50:57 -0.00, -75.21 -0.79, -79.07 437.91 80
6 02/27/2021 06:17:22 -0.00, -75.23 -0.95, -70.92 490.68 80
7 02/27/2021 18:38:45 0.00, -75.23 -0.20, -76.10 99.30 80
8 03/01/2021 18:29:14 0.00, -75.26 0.46, -73.15 240.00 80
9 03/02/2021 06:50:30 -0.00, -75.27 0.64, -78.30 344.80 80
10 03/04/2021 06:38:19 -0.00, -75.30 -0.02, -75.35 5.71 80
